ARIANE 5 DEB, 43384

Orbit data source: Space-Track

ARIANE 5 DEB, 43384 is space debris in HEO originally from a launch on Thu, 12 Jun 2008 UTC launched from the French Guiana (FRGUI). Debris objects in space refer to the collection of defunct objects orbiting the Earth. Examples of debris include non-operational satellites, rocket bodies, and fragments generated from explosions, collisions, or faulty payload assembly.

Loading next visibility...
Identifier
43384, 2008-030G
Orbit
HEO
Country
Flag of FRFR
Related business
Manufacturer
Thales Alenia
Mission
Spacecraft
Bus & Motor
Unknown
Mass
Unknown
Launch date (UTC)
2008-06-12 (18 years ago)
Launch vehicle
Unknown
Launch site
French Guiana (FRGUI)
Object type
Payload
Rocket body
Debris
Shape & HBR
Unknown shape, 1.1 m
Radar Cross Section
Medium (>0.1 m² and <1 m²)

Expand to show TLE details & history
Last TLE update: 3 days ago

TLE from 3 days ago
0 ARIANE 5 DEB
1 43384U 08030G   26170.70088878 -.00000016  00000-0  20576-3 0  9996
2 43384   1.8626 289.0373 7177115  62.5771 351.5279  2.31035459146269
Epoch: 2026-06-19T16:49Z
TLE epoch observation values (Epoch: 2026-06-19T16:49:16.790Z)
Latitude
0.00023°
Longitude
129.83339°
Altitude
2,377.364 km
Speed
8.634 km/s
True Right ascension
19h 20m 19s
True Declination
0° 00' 01"
Sunlit
Object was in full shadow at epoch
Visualization orbit readout
Latitude
Unknown
Longitude
Unknown
Altitude
Unknown
Speed
Unknown
Apparent Right ascension
Unknown
Apparent Declination
Unknown
Sunlit
N/A
Visualization observer readout
Local Sidereal Time
21:35:31
Azimuth
Unknown
Elevation
Unknown
Doppler factor
Unknown
Orbital elements
Apogee altitude
35,148.815 km
Perigee altitude
446.397 km
Semi-major axis
24,175.743 km
Eccentricity
0.71771
Inclination
1.8626°
RAAN
289.0373°
Arg. of periapsis
62.5771°
True anomaly
297.97944°
Mean anomaly
351.5279°
Eccentric anomaly
332.61003°
Mean motion
0.5774 °/min
Orbital period
623.49 mins
BSTAR
0.00020576
Loading maneuver chart data...
Computing Atmospheric mass density...
Loading historical data...
Loading historical data...
Loading historical data...
Loading historical data...
Loading historical data...
Loading historical data...
Loading historical data...

Documentation

Showing up to 5 results
|